FW5295 Weather Reports


time (UTC)temp
C
wind
direction
speed
KPH
gust
KPH
rain 1hr
cm
rain 24hr
cm
rain mn
cm
humidity
%
barometer
mb
20230326231002 5 2 9.7 12.9 0.00 0.05 0.05 80 1011.5
20230326230504 5 349 6.4 16.1 0.00 0.05 0.05 80 1012.1
20230326230003 5 7 9.7 24.1 0.00 0.05 0.05 79 1011.2
20230326225503 5 66 6.4 24.1 0.00 0.05 0.05 79 1010.9
20230326225002 5 55 8.0 22.5 0.00 0.05 0.05 78 1010.8
20230326224723 5 112 14.5 25.7 0.00 0.05 0.05 78 1011.2
20230326224002 5 99 12.9 25.7 0.00 0.05 0.05 77 1010.9
20230326223503 6 79 14.5 27.4 0.00 0.05 0.05 75 1010.9
20230326223015 6 55 20.9 24.1 0.00 0.05 0.05 76 1010.7
20230326222505 6 93 9.7 27.4 0.00 0.05 0.05 76 1011.0
20230326222002 6 65 9.7 27.4 0.00 0.05 0.05 75 1010.6
20230326221503 6 75 11.3 24.1 0.00 0.05 0.05 73 1010.5
20230326221003 6 87 9.7 27.4 0.00 0.05 0.05 73 1010.5
20230326220502 6 83 14.5 29.0 0.00 0.05 0.05 72 1010.7
20230326220004 6 86 9.7 29.0 0.00 0.05 0.05 71 1010.4
20230326215502 7 68 16.1 29.0 0.00 0.05 0.05 70 1010.4
20230326215222 7 52 16.1 29.0 0.00 0.05 0.05 71 1010.6
20230326214504 7 72 8.0 25.7 0.00 0.05 0.05 73 1010.9
20230326214229 7 69 11.3 25.7 0.00 0.05 0.05 71 1010.9
20230326213503 7 72 6.4 25.7 0.00 0.05 0.05 71 1011.1
20230326213015 8 41 16.1 25.7 0.00 0.05 0.05 68 1010.8
20230326212503 8 67 9.7 25.7 0.00 0.05 0.05 69 1011.0
20230326212002 8 84 11.3 25.7 0.00 0.05 0.05 67 1011.2
20230326211723 8 91 12.9 24.1 0.00 0.05 0.05 70 1011.4
20230326211003 8 93 9.7 24.1 0.00 0.05 0.05 67 1011.4
20230326210503 8 62 12.9 22.5 0.00 0.05 0.05 66 1011.4
20230326210003 8 54 14.5 24.1 0.00 0.05 0.05 65 1011.4
20230326205502 8 64 17.7 24.1 0.00 0.05 0.05 65 1011.6
20230326205003 8 117 14.5 17.7 0.00 0.05 0.05 64 1011.3
20230326204504 8 72 9.7 22.5 0.00 0.05 0.05 62 1011.6
20230326204004 8 57 16.1 22.5 0.00 0.05 0.05 62 1011.7
20230326203502 8 99 6.4 20.9 0.00 0.05 0.05 61 1011.8
20230326203016 8 39 9.7 17.7 0.00 0.05 0.05 59 1012.0
20230326202728 8 57 9.7 27.4 0.00 0.05 0.05 60 1011.9
20230326202006 8 59 12.9 27.4 0.00 0.05 0.05 58 1011.9
20230326201725 8 64 14.5 17.7 0.00 0.05 0.05 59 1012.1
20230326201225 8 80 12.9 22.5 0.00 0.05 0.05 59 1012.0
20230326200502 8 59 11.3 22.5 0.00 0.05 0.05 58 1012.3
20230326200225 8 68 14.5 17.7 0.00 0.05 0.05 59 1012.2
20230326195502 8 44 6.4 16.1 0.00 0.05 0.05 59 1012.3
20230326195001 8 100 8.0 22.5 0.00 0.05 0.05 59 1012.1
20230326194503 8 90 9.7 22.5 0.00 0.05 0.05 59 1012.2
20230326194445 8 95 8.0 20.9 0.00 0.05 0.05 60 1012.5
20230326193502 8 54 9.7 20.9 0.00 0.05 0.05 61 1012.1
20230326193002 8 84 11.3 20.9 0.00 0.05 0.05 62 1012.4
20230326192508 8 84 8.0 17.7 0.00 0.05 0.05 62 1012.5
20230326192006 8 81 9.7 17.7 0.00 0.05 0.05 60 1012.5
20230326191728 8 94 6.4 14.5 0.00 0.05 0.05 60 1012.6
20230326191004 9 80 4.8 29.0 0.00 0.05 0.05 61 1012.4
20230326190503 8 92 17.7 29.0 0.00 0.05 0.05 63 1012.7
20230326190004 8 102 11.3 20.9 0.00 0.05 0.05 63 1012.5
20230326185503 8 54 9.7 20.9 0.00 0.08 0.05 63 1012.5
20230326185002 8 98 8.0 20.9 0.00 0.08 0.05 62 1012.7
20230326184510 8 123 3.2 25.7 0.00 0.10 0.05 64 1012.7
20230326184002 8 79 9.7 25.7 0.00 0.10 0.05 65 1012.8
20230326183508 7 60 6.4 17.7 0.00 0.13 0.05 66 1013.0
20230326183002 7 106 12.9 17.7 0.00 0.15 0.05 67 1013.0
20230326182501 7 75 12.9 17.7 0.00 0.15 0.05 68 1012.9
20230326182220 7 73 11.3 17.7 0.00 0.18 0.05 69 1012.8
20230326181503 7 70 3.2 22.5 0.00 0.18 0.05 73 1013.3
20230326181002 6 87 11.3 22.5 0.00 0.20 0.05 72 1012.9
20230326180503 6 67 6.4 16.1 0.00 0.23 0.05 71 1013.4
20230326180004 6 87 8.0 16.1 0.00 0.25 0.05 73 1013.1
20230326175722 6 111 4.8 24.1 0.00 0.28 0.05 72 1013.1
20230326175002 6 104 6.4 24.1 0.00 0.30 0.05 72 1013.1
20230326174502 6 56 9.7 17.7 0.00 0.33 0.05 73 1013.5
20230326174003 6 81 8.0 17.7 0.00 0.33 0.05 72 1013.1
20230326173514 6 43 12.9 20.9 0.00 0.33 0.05 72 1012.9
20230326173008 6 85 9.7 22.5 0.00 0.36 0.05 71 1013.3
20230326172502 6 44 12.9 22.5 0.00 0.36 0.05 72 1013.3
20230326172006 6 135 9.7 20.9 0.00 0.38 0.05 70 1013.4
20230326171502 6 75 8.0 17.7 0.00 0.38 0.05 72 1013.4
20230326171002 6 67 9.7 17.7 0.00 0.38 0.05 71 1013.5
20230326170515 5 76 8.0 16.1 0.00 0.41 0.05 74 1013.4
20230326170005 5 65 9.7 16.1 0.00 0.41 0.05 76 1013.6
20230326165730 5 110 6.4 16.1 0.00 0.43 0.05 76 1013.7
20230326165001 5 71 8.0 14.5 0.00 0.43 0.05 83 1013.7
20230326164503 4 66 4.8 14.5 0.00 0.43 0.05 83 1013.7
20230326164006 4 48 9.7 14.5 0.00 0.46 0.05 83 1014.0
20230326163503 4 61 6.4 14.5 0.00 0.46 0.05 83 1014.0
20230326163004 3 84 6.4 14.5 0.00 0.48 0.05 83 1014.0
20230326162502 3 72 6.4 11.3 0.00 0.48 0.05 85 1014.0
20230326162003 3 73 6.4 9.7 0.00 0.51 0.05 84 1014.3
20230326161508 3 85 6.4 9.7 0.00 0.51 0.05 85 1014.2
20230326161002 3 76 3.2 11.3 0.00 0.51 0.05 88 1014.3
20230326160514 2 53 8.0 12.9 0.00 0.51 0.05 87 1014.1
20230326160005 2 112 6.4 12.9 0.00 0.51 0.05 87 1014.3
20230326155502 2 61 6.4 11.3 0.00 0.53 0.05 89 1014.1
20230326155009 2 52 3.2 6.4 0.00 0.53 0.05 90 1014.3
20230326154503 2 61 3.2 4.8 0.00 0.56 0.05 89 1014.1
20230326154224 2 79 1.6 6.4 0.00 0.56 0.05 90 1014.4
20230326153502 2 92 3.2 6.4 0.00 0.56 0.05 90 1014.1
20230326153002 2 60 1.6 4.8 0.00 0.58 0.05 90 1014.1
20230326152502 2 96 1.6 4.8 0.00 0.58 0.05 90 1014.2
20230326152002 2 100 3.2 4.8 0.03 0.58 0.05 90 1014.2
20230326151722 2 94 1.6 4.8 0.03 0.58 0.05 90 1014.1
20230326151002 2 92 1.6 6.4 0.03 0.58 0.05 89 1014.0
20230326150723 2 74 3.2 6.4 0.03 0.58 0.05 90 1014.0
20230326150002 1 63 4.8 6.4 0.05 0.58 0.05 91 1014.2
20230326145723 1 79 3.2 6.4 0.05 0.61 0.05 92 1014.2
20230326145003 1 49 1.6 3.2 0.05 0.61 0.05 92 1014.3
20230326144501 1 51 3.2 4.8 0.05 0.61 0.05 92 1014.1
20230326144225 1 10 0.0 4.8 0.05 0.61 0.05 91 1014.3
20230326143502 1 275 1.6 3.2 0.05 0.58 0.05 93 1014.3
20230326143016 1 265 3.2 3.2 0.05 0.58 0.05 93 1014.3
20230326142503 1 265 1.6 1.6 0.05 0.61 0.05 92 1014.2
20230326142002 1 265 0.0 1.6 0.03 0.58 0.05 90 1014.1
20230326141515 1 195 0.0 1.6 0.03 0.58 0.03 89 1014.1
20230326141228 1 195 0.0 3.2 0.03 0.58 0.03 88 1014.0
20230326140503 1 324 0.0 3.2 0.03 0.58 0.03 87 1014.1
20230326140003 1 282 1.6 3.2 0.00 0.56 0.00 86 1014.1
20230326135503 1 274 1.6 4.8 0.00 0.56 0.00 85 1014.2
20230326135220 1 273 1.6 4.8 0.00 0.56 0.00 82 1014.3
20230326134503 1 235 0.0 4.8 0.00 0.56 0.00 81 1014.4
20230326134003 1 246 0.0 1.6 0.00 0.56 0.00 85 1014.5
20230326133728 1 246 0.0 1.6 0.00 0.56 0.00 85 1014.5
20230326133015 1 246 1.6 1.6 0.00 0.56 0.00 84 1014.7
20230326132719 1 246 0.0 1.6 0.00 0.56 0.00 85 1014.5
20230326132003 1 247 1.6 1.6 0.00 0.56 0.00 84 1014.5
20230326131503 1 143 1.6 1.6 0.00 0.56 0.00 84 1014.4
20230326131004 1 142 0.0 1.6 0.00 0.56 0.00 83 1014.4
20230326130506 1 142 0.0 0.0 0.00 0.56 0.00 83 1014.1
20230326130015 1 142 0.0 3.2 0.00 0.56 0.00 84 1013.9
20230326125723 1 142 0.0 3.2 0.00 0.56 0.00 86 1014.0
20230326125226 1 171 1.6 3.2 0.00 0.56 0.00 85 1014.1
20230326124502 1 174 1.6 4.8 0.00 0.56 0.00 86 1013.9
20230326124015 0 260 1.6 4.8 0.00 0.56 0.00 88 1013.6
20230326123502 0 311 1.6 3.2 0.00 0.56 0.00 90 1013.5
20230326123015 0 309 3.2 3.2 0.00 0.56 0.00 90 1013.1
20230326122502 0 298 1.6 3.2 0.00 0.56 0.00 90 1013.4
20230326122002 0 297 0.0 0.0 0.00 0.56 0.00 90 1013.7
20230326121503 0 297 0.0 0.0 0.00 0.56 0.00 90 1013.7
20230326121003 0 297 0.0 0.0 0.00 0.56 0.00 89 1013.7
20230326120719 0 297 0.0 0.0 0.00 0.56 0.00 89 1013.6
20230326120002 0 297 0.0 0.0 0.00 0.56 0.00 89 1013.7
20230326115502 0 297 0.0 0.0 0.00 0.56 0.00 90 1013.6
20230326115002 0 297 0.0 0.0 0.00 0.56 0.00 90 1013.5
20230326114504 0 297 0.0 0.0 0.00 0.56 0.00 91 1013.4
20230326114232 0 297 0.0 0.0 0.00 0.56 0.00 90 1013.1
20230326113502 0 297 0.0 0.0 0.00 0.56 0.00 90 1013.5
20230326113003 0 297 0.0 0.0 0.00 0.56 0.00 90 1013.3
20230326112503 0 297 0.0 0.0 0.00 0.56 0.00 90 1013.4
20230326112002 0 297 0.0 0.0 0.00 0.56 0.00 91 1013.1
20230326111505 0 297 0.0 0.0 0.00 0.56 0.00 91 1012.9
20230326111002 0 297 0.0 0.0 0.00 0.56 0.00 91 1013.0
20230326110733 -1 297 0.0 0.0 0.00 0.56 0.00 90 1013.0
20230326110004 -1 297 0.0 0.0 0.00 0.56 0.00 90 1013.3
20230326105502 -1 297 0.0 0.0 0.00 0.56 0.00 89 1013.0
20230326105001 0 297 0.0 0.0 0.00 0.56 0.00 88 1013.0
20230326104503 0 297 0.0 0.0 0.00 0.56 0.00 88 1012.9
20230326104222 0 297 0.0 0.0 0.00 0.56 0.00 87 1013.0
20230326103504 0 297 0.0 0.0 0.00 0.56 0.00 87 1013.0
20230326103225 0 297 0.0 1.6 0.00 0.56 0.00 87 1013.1
20230326102502 0 297 0.0 3.2 0.00 0.56 0.00 86 1012.9
20230326102227 0 297 1.6 3.2 0.00 0.56 0.00 86 1012.9
20230326101729 0 297 1.6 3.2 0.00 0.56 0.00 86 1013.0
20230326101224 0 297 1.6 3.2 0.00 0.56 0.00 86 1013.0
20230326100502 0 297 1.6 1.6 0.00 0.56 0.00 86 1012.9
20230326100011 0 297 1.6 3.2 0.00 0.56 0.00 85 1012.7
20230326095502 0 297 0.0 3.2 0.00 0.56 0.00 86 1012.7
20230326095004 0 298 1.6 3.2 0.00 0.56 0.00 86 1012.7
20230326094502 0 297 1.6 3.2 0.00 0.56 0.00 86 1012.8
20230326094015 0 297 1.6 4.8 0.00 0.56 0.00 86 1012.6
20230326093506 0 300 3.2 4.8 0.00 0.56 0.00 86 1012.3
20230326093022 0 288 3.2 4.8 0.00 0.58 0.00 86 1012.3
20230326092505 0 293 3.2 4.8 0.00 0.64 0.00 87 1012.4
20230326092002 0 287 0.0 1.6 0.00 0.66 0.00 88 1012.2
20230326091727 0 281 0.0 0.0 0.00 0.69 0.00 88 1012.3
20230326091002 0 281 0.0 0.0 0.00 0.71 0.00 88 1012.2
20230326090724 0 281 0.0 0.0 0.00 0.79 0.00 88 1012.4
20230326090228 0 280 0.0 0.0 0.00 0.81 0.00 89 1012.0
20230326085727 0 280 0.0 0.0 0.00 0.84 0.00 89 1012.4
20230326085002 0 281 0.0 0.0 0.00 0.89 0.00 89 1012.3
20230326084503 0 281 0.0 1.6 0.00 0.94 0.00 89 1012.0
20230326084002 0 281 0.0 1.6 0.00 0.97 0.00 89 1012.1
20230326083502 0 280 0.0 1.6 0.00 1.02 0.00 89 1012.5
20230326083003 0 281 1.6 1.6 0.00 1.04 0.00 88 1012.2
20230326082502 0 281 0.0 1.6 0.00 1.07 0.00 88 1012.5
20230326082015 0 265 0.0 3.2 0.00 1.09 0.00 87 1012.4
20230326081714 0 276 0.0 3.2 0.00 1.17 0.00 86 1012.5
20230326081558 0 265 0.0 3.2 0.00 1.12 0.00 86 1012.3
20230326080508 0 271 3.2 3.2 0.00 1.17 0.00 87 1012.6
20230326080003 0 253 1.6 3.2 0.00 1.19 0.00 86 1012.4
20230326075503 0 247 0.0 3.2 0.00 1.22 0.00 86 1012.5
20230326075004 0 269 1.6 4.8 0.00 1.22 0.00 85 1012.4
20230326074502 1 254 0.0 4.8 0.00 1.24 0.00 85 1012.5
20230326074001 1 258 0.0 3.2 0.00 1.27 0.00 85 1012.3
20230326073502 1 249 1.6 3.2 0.00 1.27 0.00 85 1012.4
20230326073002 1 248 1.6 4.8 0.00 1.30 0.00 85 1012.2
20230326072725 1 277 1.6 4.8 0.00 1.32 0.00 85 1012.5
20230326072014 1 290 0.0 4.8 0.00 1.32 0.00 86 1012.3
20230326071503 1 290 1.6 4.8 0.00 1.32 0.00 85 1012.1
20230326071002 1 275 1.6 6.4 0.00 1.32 0.00 84 1012.2
20230326070503 1 224 0.0 6.4 0.00 1.32 0.00 84 1012.5
20230326070001 1 267 1.6 6.4 0.00 1.35 0.00 84 1012.3
20230326065502 1 253 1.6 4.8 0.00 1.35 0.00 84 1012.3
20230326065004 1 251 3.2 4.8 0.00 1.37 0.00 85 1012.4
20230326064502 1 255 3.2 6.4 0.00 1.40 0.00 86 1012.2
20230326064002 1 206 1.6 6.4 0.00 1.40 0.00 86 1012.3
20230326063508 1 242 0.0 4.8 0.00 1.42 0.00 86 1012.2
20230326063224 1 226 1.6 4.8 0.00 1.42 0.00 86 1012.1
20230326062502 1 227 0.0 6.4 0.00 1.42 0.00 85 1012.1
20230326062006 1 239 0.0 6.4 0.00 1.45 0.00 85 1012.1
20230326061515 1 222 1.6 4.8 0.00 1.45 0.00 86 1012.0
20230326061223 1 233 1.6 4.8 0.00 1.45 0.00 85 1012.1
20230326060501 1 261 1.6 4.8 0.00 1.45 0.00 86 1011.9
20230326060007 1 238 1.6 3.2 0.00 1.45 0.00 86 1011.8
20230326055507 0 237 0.0 3.2 0.00 1.47 0.00 87 1011.8
20230326055016 0 229 1.6 3.2 0.00 1.47 0.00 87 1011.9
20230326054503 0 210 3.2 4.8 0.00 1.50 0.00 88 1011.9
20230326054002 0 218 1.6 4.8 0.00 1.52 0.00 88 1011.6
20230326053501 0 221 3.2 4.8 0.00 1.55 0.00 88 1011.6
20230326053004 0 223 1.6 4.8 0.00 1.55 0.00 88 1011.6
20230326052502 0 209 1.6 3.2 0.00 1.55 0.00 87 1011.5
20230326052002 0 205 1.6 3.2 0.00 1.57 0.00 86 1011.5
20230326051503 0 214 1.6 3.2 0.00 1.60 0.00 85 1011.4
20230326051002 1 203 1.6 4.8 0.00 1.60 0.00 84 1011.4
20230326050943 1 203 1.6 4.8 0.00 1.60 0.00 84 1011.2
20230326050002 1 197 3.2 4.8 0.00 1.60 1.60 84 1011.4
20230326045502 1 210 1.6 6.4 0.00 1.60 1.60 84 1011.2
20230326045003 1 224 1.6 6.4 0.00 1.60 1.60 84 1011.3
20230326044726 1 238 1.6 3.2 0.00 1.60 1.60 84 1011.4
20230326044221 1 211 1.6 4.8 0.00 1.60 1.60 84 1011.2
20230326043502 1 234 3.2 4.8 0.00 1.60 1.60 84 1011.1
20230326043003 1 236 1.6 6.4 0.00 1.60 1.60 85 1011.1
20230326042502 1 223 1.6 6.4 0.00 1.60 1.60 86 1011.1
20230326042010 1 235 3.2 4.8 0.00 1.60 1.60 86 1011.0
20230326041504 0 213 3.2 4.8 0.00 1.60 1.60 86 1010.9
20230326041004 1 229 1.6 4.8 0.00 1.60 1.60 85 1010.8
20230326040502 1 216 1.6 3.2 0.00 1.60 1.60 85 1010.9
20230326040225 1 208 1.6 3.2 0.00 1.60 1.60 84 1010.6
20230326035504 1 215 1.6 4.8 0.00 1.60 1.60 84 1010.7
20230326035003 1 219 0.0 4.8 0.00 1.60 1.60 84 1010.7
20230326034503 1 222 1.6 4.8 0.00 1.60 1.60 83 1010.7
20230326034223 1 217 3.2 4.8 0.00 1.60 1.60 83 1010.5
20230326033728 1 218 3.2 4.8 0.00 1.60 1.60 83 1010.4
20230326033227 1 212 3.2 4.8 0.00 1.60 1.60 82 1010.7
20230326032505 1 216 1.6 4.8 0.00 1.60 1.60 82 1010.3
20230326032002 1 217 1.6 4.8 0.00 1.60 1.60 82 1010.2
20230326031502 1 218 3.2 4.8 0.00 1.60 1.60 83 1010.3
20230326031444 1 224 1.6 3.2 0.00 1.60 1.60 83 1010.3
20230326030502 1 219 1.6 4.8 0.00 1.60 1.60 83 1010.1
20230326030003 1 229 1.6 4.8 0.00 1.60 1.60 83 1009.9
20230326025503 1 232 3.2 4.8 0.00 1.60 1.60 84 1009.9
20230326025007 1 212 3.2 3.2 0.00 1.60 1.60 83 1009.7
20230326024729 1 206 3.2 3.2 0.00 1.60 1.60 83 1009.8
20230326024322 1 207 1.6 3.2 0.00 1.60 1.60 83 1009.7
20230326024223 1 207 1.6 3.2 0.00 1.60 1.60 83 1009.8
20230326023003 1 216 1.6 4.8 0.00 1.60 1.60 83 1009.6
20230326022502 1 227 3.2 4.8 0.00 1.60 1.60 83 1009.2
20230326022004 2 224 1.6 3.2 0.00 1.60 1.60 82 1009.6
20230326021501 2 212 1.6 4.8 0.00 1.60 1.60 82 1009.4
20230326021221 2 230 1.6 4.8 0.00 1.60 1.60 83 1009.7
20230326020725 2 212 1.6 4.8 0.00 1.60 1.60 82 1009.6
20230326020004 2 223 1.6 4.8 0.00 1.60 1.60 82 1009.6
20230326015502 2 213 1.6 4.8 0.00 1.60 1.60 81 1009.3
20230326015003 2 213 1.6 4.8 0.00 1.60 1.60 80 1009.3
20230326014502 2 222 3.2 4.8 0.00 1.60 1.60 80 1009.3
20230326014003 2 209 3.2 4.8 0.00 1.60 1.60 79 1009.1
20230326013726 2 202 1.6 6.4 0.00 1.60 1.60 78 1008.7
20230326013014 2 191 4.8 6.4 0.00 1.60 1.60 78 1009.0
20230326012503 2 241 3.2 6.4 0.00 1.60 1.60 78 1008.8
20230326012453 2 235 1.6 9.7 0.00 1.60 1.60 77 1008.8
20230326011502 2 240 1.6 9.7 0.00 1.60 1.60 77 1008.6
20230326011003 3 242 1.6 11.3 0.00 1.60 1.60 77 1008.8
20230326010727 3 229 1.6 11.3 0.00 1.60 1.60 76 1008.9
20230326010012 3 236 3.2 9.7 0.00 1.60 1.60 76 1008.7
20230326005502 3 233 1.6 12.9 0.00 1.60 1.60 76 1008.7
20230326005006 3 225 3.2 12.9 0.00 1.60 1.60 75 1008.7
20230326004514 3 242 4.8 12.9 0.00 1.60 1.60 75 1008.9
20230326004225 3 227 3.2 9.7 0.00 1.60 1.60 76 1008.5
20230326003502 3 253 3.2 14.5 0.00 1.60 1.60 75 1008.5
20230326003003 3 229 1.6 16.1 0.00 1.60 1.60 74 1008.4
20230326002502 3 215 1.6 22.5 0.00 1.60 1.60 73 1008.3
20230326002002 3 219 3.2 22.5 0.00 1.60 1.60 72 1008.5
20230326001947 3 233 1.6 16.1 0.00 1.60 1.60 73 1008.2
20230326001002 3 233 3.2 16.1 0.00 1.60 1.60 73 1008.2
20230326000503 3 215 4.8 12.9 0.00 1.60 1.60 72 1008.0
20230326000003 4 223 4.8 12.9 0.00 1.60 1.60 71 1008.2
20230325235502 4 230 4.8 17.7 0.00 1.60 1.60 70 1008.2
20230325235003 4 218 3.2 17.7 0.00 1.60 1.60 70 1008.0
20230325234951 4 216 8.0 14.5 0.00 1.60 1.60 70 1008.0
20230325234003 4 225 4.8 12.9 0.00 1.60 1.60 69 1008.1
20230325233502 5 189 8.0 12.9 0.00 1.60 1.60 69 1007.9
20230325233002 5 214 6.4 12.9 0.00 1.60 1.60 65 1007.9
20230325232502 5 248 9.7 14.5 0.00 1.60 1.60 64 1007.9
20230325232243 5 233 9.7 14.5 0.00 1.60 1.60 65 1007.6
20230325231502 5 260 4.8 16.1 0.00 1.60 1.60 63 1007.5